Weather in Erfurt

Germany     50˚58′15″N   11˚00′43″E
temp.,
°C
wind,
m/s
gust,
m/s
humid.,
%
clouds,
%
prec.,
mm/h
press.,
hPa
HPBL,
m
1 december, tue
tue101:00+1˚sw5117788 0.3 1017410
04:00+1˚ssw51076100 0.5 1015429
07:00+1˚s3787100 0.6 1015309
10:00+2˚ssw377899 0.1 1016319
13:00+4˚sw127898 0.1 1016265
16:00+4˚sse228393 0.0 101747
19:00+2˚sse018795 0.0 101922
22:00+2˚sse118796 0.0 102122
2 december, wed
wed201:00+1˚ene119178 0.0 102222
04:00ne119350 0.0 102122
07:00−1˚e119542 0.0 102121
10:00+1˚ne12883 0.0 1020173
13:00+3˚ne23767 0.0 1018443
16:00ene228710 0.0 101623
19:00−2˚ese11895 0.0 101521
22:00−2˚w12917 0.0 101423
3 december, thu
thu301:00−2˚sw239121 0.0 101350
04:00−2˚wsw248764 0.0 1011133
07:00−1˚ssw248075 0.0 1010195
10:00ssw467296 0.0 1008311
13:00+2˚ssw456390 0.0 1006823
16:00−1˚ssw377930 0.0 1004191
19:00−1˚s498358 0.0 1003267
22:00−2˚s238575 0.0 100189
4 december, fri
fri401:00−2˚se238579 0.0 99974
04:00−3˚se238831 0.0 99750
07:00−2˚ese238360 0.0 99571
10:00ene237295 0.0 99498
13:00+2˚ene236197 0.0 992230
16:00e2386100 0.0 99130
19:00−1˚e239176 0.0 99037
22:00−1˚e129196 0.0 99024
5 december, sat
sat501:00−1˚ene128995 0.0 99034
04:00−2˚nne1194100 0.0 98921
07:00−2˚wnw019587 0.0 99021
10:00nw2285100 0.0 99288
13:00+3˚s127497 0.0 993358
16:00+1˚wsw2385100 0.0 99560
19:00w2290100 0.0 99625
22:00−1˚wnw2393100 0.0 99638